Weather History for Erie, CO

Change the Weather History Date:

Thursday, July 4, 2013

  Actual Average (KBJC) Record (KBJC)
Temperature  
Mean Temperature 72 °F -  
Max Temperature 91 °F 86 °F 99 °F (1989)
Min Temperature 54 °F 60 °F 48 °F (1993)
Cooling Degree Days 8    
Growing Degree Days 22 (Base 50)    
Moisture  
Dew Point 44 °F    
Average Humidity 40    
Maximum Humidity 81    
Minimum Humidity 14    
Precipitation  
Precipitation 0.00 in - - ()
Sea Level Pressure  
Sea Level Pressure 29.99 in    
Wind  
Wind Speed 3 mph (SSW)    
Max Wind Speed 16 mph    
Max Gust Speed 21 mph    
Visibility 10 miles    
Events      
Averages and records for this station are not official NWS values.
T = Trace of Precipitation, MM = Missing Value Source: NWS Daily Summary

Daily Weather History Graph

Daily Weather History Graph

Search for Another Location

Airport:

Trip Planner

Search our weather history database for the weather conditions in past years. The results will help you decide how hot, cold, wet, or windy it might be!

Date:

Astronomy

Jul. 04, 2013 Rise Set
Actual Time 5:36 AM MDT 8:32 PM MDT
Civil Twilight 5:04 AM MDT 9:04 PM MDT
Nautical Twilight 4:23 AM MDT 9:45 PM MDT
Astronomical Twilight 3:35 AM MDT 10:33 PM MDT
Moon 2:55 AM MDT (7/4) 5:39 PM MDT (7/4)
Length of Visible Light 16h 00m
Length of Day
14h 55m
Waning Crescent, 11% of the Moon is Illuminated
Jul 4
Waning Crescent
Jul 8
New
Jul 15
First Quarter
Jul 22
Full
Jul 29
Last Quarter

Hourly Weather History & Observations

Time (MDT) Temp. Dew Point Humidity Pressure Visibility Wind Dir Wind Speed Gust Speed Precip Events Conditions
12:15 AM 64.9 °F 47.8 °F 54% 30.00 in 10.0 mi Calm Calm - N/A   Clear
12:35 AM 62.2 °F 49.1 °F 62% 30.00 in 10.0 mi SW 3.5 mph - N/A   Clear
12:55 AM 61.2 °F 48.4 °F 63% 30.00 in 10.0 mi Calm Calm - N/A   Clear
1:15 AM 63.0 °F 47.5 °F 57% 30.00 in 10.0 mi Calm Calm - N/A   Clear
1:35 AM 63.7 °F 47.8 °F 56% 30.00 in 10.0 mi Calm Calm - N/A   Clear
1:55 AM 61.3 °F 47.8 °F 61% 30.00 in 10.0 mi Calm Calm - N/A   Clear
2:15 AM 61.5 °F 47.5 °F 60% 29.99 in 10.0 mi SSW 3.5 mph - N/A   Clear
2:35 AM 60.8 °F 47.3 °F 61% 30.00 in 10.0 mi Calm Calm - N/A   Clear
2:55 AM 60.4 °F 48.0 °F 64% 30.00 in 10.0 mi Calm Calm - N/A   Clear
3:15 AM 58.8 °F 48.7 °F 69% 30.00 in 10.0 mi Calm Calm - N/A   Clear
3:35 AM 57.6 °F 48.0 °F 70% 30.00 in 10.0 mi Calm Calm - N/A   Clear
3:55 AM 57.2 °F 48.2 °F 72% 29.99 in 10.0 mi Calm Calm - N/A   Clear
4:15 AM 56.1 °F 48.4 °F 75% 30.00 in 10.0 mi Calm Calm - N/A   Clear
4:35 AM 56.3 °F 48.4 °F 75% 30.00 in 10.0 mi Calm Calm - N/A   Clear
4:55 AM 55.2 °F 48.9 °F 79% 30.00 in 10.0 mi Calm Calm - N/A   Clear
5:15 AM 55.2 °F 48.7 °F 79% 30.00 in 10.0 mi SW 3.5 mph - N/A   Clear
5:35 AM 54.5 °F 48.7 °F 81% 30.01 in 10.0 mi Calm Calm - N/A   Clear
5:55 AM 55.6 °F 48.6 °F 77% 30.01 in 10.0 mi Calm Calm - N/A   Clear
6:15 AM 57.4 °F 48.6 °F 72% 30.01 in 10.0 mi Calm Calm - N/A   Clear
6:35 AM 59.2 °F 48.6 °F 68% 30.02 in 10.0 mi Calm Calm - N/A   Clear
6:55 AM 61.3 °F 50.2 °F 67% 30.02 in 10.0 mi Calm Calm - N/A   Clear
7:15 AM 64.9 °F 50.0 °F 58% 30.03 in 10.0 mi Calm Calm - N/A   Clear
7:35 AM 67.5 °F 48.9 °F 51% 30.04 in 10.0 mi Calm Calm - N/A   Scattered Clouds
7:55 AM 69.1 °F 48.9 °F 49% 30.04 in 10.0 mi Calm Calm - N/A   Scattered Clouds
8:15 AM 73.8 °F 46.9 °F 38% 30.04 in 10.0 mi Calm Calm - N/A   Clear
8:35 AM 77.2 °F 42.6 °F 29% 30.04 in 10.0 mi Calm Calm - N/A   Clear
8:55 AM 79.3 °F 42.1 °F 27% 30.05 in 10.0 mi SSW 3.5 mph - N/A   Clear
9:15 AM 81.5 °F 41.5 °F 24% 30.04 in 10.0 mi Calm Calm - N/A   Clear
9:35 AM 82.4 °F 40.3 °F 22% 30.04 in 10.0 mi Calm Calm - N/A   Scattered Clouds
9:55 AM 83.3 °F 39.2 °F 21% 30.04 in 10.0 mi Calm Calm - N/A   Scattered Clouds
10:15 AM 84.6 °F 38.5 °F 19% 30.03 in 10.0 mi ENE 4.6 mph - N/A   Scattered Clouds
10:35 AM 85.6 °F 39.9 °F 20% 30.02 in 10.0 mi ENE 10.4 mph - N/A   Scattered Clouds
10:55 AM 86.5 °F 39.9 °F 19% 30.02 in 10.0 mi ENE 8.1 mph - N/A   Scattered Clouds
11:15 AM 86.9 °F 41.0 °F 20% 30.02 in 10.0 mi NE 12.7 mph 17.3 mph N/A   Scattered Clouds
11:35 AM 86.9 °F 41.4 °F 20% 30.01 in 10.0 mi NNE 10.4 mph - N/A   Clear
11:55 AM 87.4 °F 40.8 °F 19% 30.01 in 10.0 mi North 11.5 mph 18.4 mph N/A   Clear
12:15 PM 88.2 °F 40.1 °F 18% 30.01 in 10.0 mi NNE 9.2 mph 12.7 mph N/A   Clear
12:35 PM 88.9 °F 39.2 °F 17% 30.00 in 10.0 mi ENE 10.4 mph 17.3 mph N/A   Clear
12:55 PM 89.8 °F 36.7 °F 15% 29.99 in 10.0 mi NNW 8.1 mph - N/A   Clear
1:15 PM 88.9 °F 37.9 °F 17% 29.99 in 10.0 mi NE 3.5 mph - N/A   Clear
1:35 PM 87.4 °F 38.8 °F 18% 29.99 in 10.0 mi ESE 3.5 mph - N/A   Mostly Cloudy
1:55 PM 90.5 °F 39.0 °F 16% 29.98 in 10.0 mi ENE 6.9 mph - N/A   Scattered Clouds
2:15 PM 89.2 °F 37.9 °F 16% 29.98 in 10.0 mi NW 5.8 mph - N/A   Mostly Cloudy
2:35 PM 89.2 °F 37.8 °F 16% 29.98 in 10.0 mi North 4.6 mph - N/A   Mostly Cloudy
2:55 PM 90.0 °F 38.3 °F 16% 29.98 in 10.0 mi ENE 10.4 mph - N/A   Mostly Cloudy
3:15 PM 88.9 °F 37.2 °F 16% 29.98 in 10.0 mi East 3.5 mph - N/A   Mostly Cloudy
3:35 PM 90.5 °F 37.0 °F 15% 29.97 in 10.0 mi NE 5.8 mph - N/A   Mostly Cloudy
3:55 PM 91.2 °F 36.0 °F 14% 29.96 in 10.0 mi ESE 8.1 mph - N/A   Scattered Clouds
4:15 PM 89.1 °F 34.7 °F 15% 29.96 in 10.0 mi Calm Calm - N/A   Mostly Cloudy
4:35 PM 87.8 °F 38.1 °F 17% 29.97 in 10.0 mi SW 9.2 mph - N/A   Overcast
4:55 PM 86.4 °F 43.9 °F 23% 29.96 in 10.0 mi WSW 16.1 mph 20.7 mph N/A   Overcast
5:15 PM 86.0 °F 42.1 °F 21% 29.96 in 10.0 mi WSW 12.7 mph 20.7 mph N/A   Mostly Cloudy
5:35 PM 85.5 °F 43.7 °F 23% 29.96 in 10.0 mi West 11.5 mph 20.7 mph N/A   Scattered Clouds
5:55 PM 84.0 °F 44.2 °F 25% 29.96 in 10.0 mi West 16.1 mph 20.7 mph N/A   Clear
6:15 PM 85.1 °F 43.3 °F 23% 29.95 in 10.0 mi WSW 12.7 mph 18.4 mph N/A   Clear
6:35 PM 84.0 °F 40.5 °F 21% 29.95 in 10.0 mi WSW 11.5 mph 18.4 mph N/A   Clear
6:55 PM 82.6 °F 41.7 °F 24% 29.95 in 10.0 mi SW 5.8 mph - N/A   Clear
7:15 PM 80.4 °F 43.9 °F 27% 29.95 in 10.0 mi SW 4.6 mph - N/A   Clear
7:35 PM 79.5 °F 44.6 °F 29% 29.95 in 10.0 mi SSW 3.5 mph - N/A   Clear
7:55 PM 78.6 °F 45.3 °F 31% 29.96 in 10.0 mi South 6.9 mph - N/A   Clear
8:15 PM 77.2 °F 44.2 °F 31% 29.96 in 10.0 mi South 3.5 mph - N/A   Clear
8:35 PM 76.5 °F 45.0 °F 33% 29.96 in 10.0 mi Calm Calm - N/A   Clear
8:55 PM 76.1 °F 45.0 °F 33% 29.96 in 10.0 mi Calm Calm - N/A   Clear
9:15 PM 73.8 °F 46.4 °F 38% 29.97 in 10.0 mi Calm Calm - N/A   Clear
9:35 PM 73.4 °F 47.7 °F 40% 29.97 in 10.0 mi Calm Calm - N/A   Clear
9:55 PM 72.0 °F 47.7 °F 42% 29.97 in 10.0 mi Calm Calm - N/A   Clear
10:15 PM 70.5 °F 49.5 °F 47% 29.97 in 10.0 mi Calm Calm - N/A   Clear
10:35 PM 68.0 °F 50.0 °F 52% 29.97 in 10.0 mi Calm Calm - N/A   Clear
10:55 PM 67.8 °F 48.6 °F 50% 29.96 in 10.0 mi Calm Calm - N/A   Clear
11:15 PM 66.2 °F 48.2 °F 52% 29.97 in 10.0 mi Calm Calm - N/A   Clear
11:35 PM 68.4 °F 47.8 °F 48% 29.96 in 10.0 mi South 3.5 mph - N/A   Clear
11:55 PM 65.8 °F 48.0 °F 53% 29.96 in 10.0 mi Calm Calm - N/A   Clear